[[[{"header":{"parameterUnit":"kt","parameterCategory":2,"dx":1,"dy":1,"la1":30.253999710083008,"la2":30.299108505249023,"lo1":-89.0895004272461,"lo2":-89.04439544677734,"nx":28,"ny":28,"refTime":"2022-10-20T21:00:00:Z","depth":0,"parameterNumber":1,"parameterNumberName":"U-component_of_WINDS"},"data":[3.0332,3.0412,3.0425,3.0524,3.0554,3.0624,3.0655,3.0696,3.0732,3.0821,3.0875,3.0899,3.0944,3.1015,3.1076,3.1086,3.1112,3.113,3.1139,3.1042,3.103,3.1018,3.0999,3.1135,3.1135,3.1238,3.1239,3.124,3.0261,3.029,3.0346,3.0409,3.0458,3.0449,3.05,3.0542,3.0606,3.0652,3.0706,3.0786,3.0852,3.0892,3.0959,3.1,3.1001,3.1017,3.1015,3.1023,3.0919,3.0899,3.1015,3.1015,3.1015,3.1015,3.1015,3.1015,3.0137,3.0184,3.0229,3.029,3.0326,3.0369,3.0418,3.0445,3.0501,3.057,3.0577,3.0652,3.0702,3.0791,3.0825,3.0885,3.087,3.0894,3.09,3.0906,3.0911,3.0762,3.0897,3.0897,3.0897,3.0896,3.0896,0,3.005,3.0058,3.0111,3.017,3.0215,3.0262,3.0308,3.0339,3.0363,3.0409,3.0477,3.0519,3.0604,3.0672,3.0738,3.077,3.0768,3.0769,3.0786,3.0784,3.0773,3.0782,3.0613,3.0765,3.0764,3.0764,3.0763,3.0763,2.9926,2.9979,3.0033,3.007,3.0097,3.0156,3.0194,3.0211,3.0251,3.0312,3.0355,3.0422,3.0476,3.0586,3.0621,3.0685,3.0686,3.0742,3.0696,3.0691,3.0689,3.0686,3.0692,3.0751,3.0753,3.0754,3.0755,0,2.9856,2.9877,2.9964,3.0012,3.0026,3.0082,3.0125,3.0174,3.0195,3.0267,3.0284,3.0319,3.0387,3.0412,3.0496,3.0508,3.0605,3.0603,3.0588,3.0589,3.0644,3.0639,3.0813,3.0837,3.0695,3.0697,3.0698,0,2.976,2.9829,2.9857,2.9906,2.9984,2.9997,3.0075,3.0101,3.0142,3.0198,3.0198,3.0251,3.0275,3.0333,3.035,3.0434,3.0449,3.0464,3.0468,3.0464,3.0463,3.0488,3.0483,3.0472,3.0471,3.0471,3.047,0,2.9649,2.9744,2.9823,2.9848,2.9907,2.9945,2.9972,3.0018,3.0056,3.0109,3.0135,3.0197,3.0231,3.028,3.0301,3.0269,3.0404,3.0364,3.0419,3.0419,3.0449,3.0447,3.0593,3.0469,3.0468,3.0468,3.0468,0,2.9575,2.9624,2.9735,2.9785,2.9809,2.9862,2.9922,2.9973,3.0022,3.0035,3.0078,3.0081,3.0154,3.0113,3.0215,3.0167,3.0202,3.0222,3.0227,3.0236,3.0189,3.027,3.0406,3.0422,3.0244,3.0242,3.024,0,2.9442,2.9559,2.9571,2.9677,2.9734,2.9728,2.9788,2.983,2.9853,2.9907,2.9932,2.9994,2.9968,2.9991,3.0039,3.0069,3.0131,3.0061,3.0144,3.0147,3.0131,3.0256,3.027,3.0373,3.0217,3.0219,3.0221,0,2.9342,2.941,2.9428,2.9458,2.9514,2.9562,2.963,2.9693,2.9728,2.9776,2.9835,2.9922,2.9907,2.9945,2.9954,3.0002,3.0089,2.998,2.9981,3.0,3.0206,3.0219,3.0236,3.0086,3.0089,3.0091,3.0202,0,2.9228,2.9288,2.9337,2.9401,2.9441,2.9508,2.953,2.957,2.9574,2.9595,2.9682,2.9724,2.9791,2.9816,2.9821,2.9921,2.9909,2.9892,2.9855,2.9935,2.9973,2.9988,2.9797,2.9796,2.9795,2.9794,0,0,2.9098,2.9184,2.9193,2.9258,2.9293,2.9285,2.9355,2.9388,2.9457,2.9482,2.9461,2.959,2.9626,2.9729,2.9756,2.9783,2.9804,2.9775,2.9896,2.9907,2.9918,2.9957,2.9973,2.9793,2.9793,2.9792,2.9792,0,2.906,2.9091,2.9158,2.9192,2.9243,2.9261,2.9277,2.9327,2.9344,2.9427,2.9422,2.9477,2.958,2.9619,2.9652,2.9762,2.9757,2.9781,2.9832,2.9887,2.9899,2.991,2.9952,2.9966,2.979,2.979,2.979,0,2.8967,2.9001,2.9035,2.9111,2.9145,2.9204,2.9169,2.9233,2.9277,2.9268,2.9352,2.9379,2.9433,2.9526,2.9569,2.9552,2.9713,2.9665,2.9671,2.9677,2.9732,2.9747,2.976,2.9587,2.9587,2.9586,0,0,2.8932,2.8987,2.9029,2.9105,2.9126,2.9154,2.9187,2.9193,2.9239,2.9258,2.9292,2.9339,2.9399,2.9439,2.9496,2.9595,2.9609,2.9639,2.9649,2.9657,2.9667,2.9724,2.9738,2.9583,2.9583,2.9583,0,0,2.8916,2.8967,2.8961,2.9051,2.9093,2.9142,2.9188,2.9183,2.9236,2.9231,2.9248,2.9261,2.9349,2.9376,2.9332,2.9484,2.9446,2.9457,2.9463,2.9475,2.9485,2.9477,2.9304,0,0,0,0,0,2.8888,2.896,2.8954,2.8972,2.9069,2.9145,2.9157,2.9171,2.9143,2.918,2.9208,2.9199,2.9356,2.9317,2.9337,2.9386,2.9543,2.955,2.9557,2.9587,2.96,2.9611,0,0,0,0,0,0,2.8895,2.8917,2.8952,2.9003,2.9025,2.9142,2.9099,2.9105,2.914,2.9137,2.9194,2.9201,2.9215,2.9308,2.9325,2.9372,2.9298,2.9546,2.9552,2.9557,2.9592,2.9602,2.9611,0,0,0,0,0,2.8901,2.8919,2.907,2.9002,2.9021,2.9056,2.9096,2.9101,2.9128,2.9171,2.9178,2.9135,2.9216,2.9232,2.9319,2.9364,2.9287,2.9293,2.955,2.9554,2.9559,2.9597,0,0,0,0,0,0,2.8906,2.8925,2.9074,2.908,2.8975,2.905,2.9062,2.9097,2.9161,2.9169,2.9113,2.911,2.9218,2.923,2.9242,2.936,2.9277,2.9283,2.9287,2.9553,2.9557,2.956,0,0,0,0,0,0,2.8915,2.893,2.9077,2.9042,2.9045,2.9044,2.9055,2.913,2.9162,2.91,2.9099,2.9111,2.9201,2.9229,2.9238,2.9356,2.9269,2.9276,2.928,2.9283,2.9556,2.9559,0,0,0,0,0,0,2.8922,2.8935,2.9041,2.9043,2.9045,2.9118,2.9111,2.9211,2.9129,2.9097,2.9123,2.912,2.92,2.921,2.9235,2.9349,2.9354,2.927,2.9274,2.9277,2.9279,0,0,0,0,0,0,0,2.8927,2.8837,2.9036,2.9043,2.9045,2.914,2.9141,2.9143,2.9129,2.9126,2.9123,2.9121,2.9234,2.9241,2.9248,2.9344,0,0,2.9269,2.9272,0,0,0,0,0,0,0,0,2.8832,2.8836,2.9036,2.9037,2.9038,2.914,2.9141,2.9143,2.9128,2.9126,2.9124,2.9122,2.9236,2.9241,2.9247,0,0,0,0,0,0,0,0,0,0,0,0,0,0,0,2.9036,2.9037,0,2.914,2.9141,2.9142,2.9128,2.9126,2.9124,2.9123,2.9237,2.9242,2.9246,0,0,0,0,0,0,0,0,0,0,0,0,0,0,0,0,0,0,0,0,0,0,0,0,0,0,0,0,0,0,0,0,0,0,0,0,0,0,0,0,0,0,0,0,0,0,0,0,0,0,0,0,0,0,0,0,0,0,0,0,0,0,0,0,0,0,0,0,0]}],[{"header":{"parameterUnit":"kt","parameterCategory":2,"dx":1,"dy":1,"la1":30.253999710083008,"la2":30.299108505249023,"lo1":-89.0895004272461,"lo2":-89.04439544677734,"nx":28,"ny":28,"refTime":"2022-10-20T21:00:00:Z","depth":0,"parameterNumber":2,"parameterNumberName":"V-component_of_WINDS"},"data":[1.8976,1.8961,1.8956,1.8936,1.8928,1.8912,1.8904,1.8894,1.8884,1.8862,1.8848,1.884,1.8827,1.8807,1.879,1.8786,1.8778,1.8774,1.877,1.8795,1.8798,1.88,1.8804,1.8773,1.8773,1.8745,1.8745,1.8745,1.8985,1.8978,1.8968,1.8954,1.8943,1.8944,1.8932,1.8922,1.8908,1.8896,1.8884,1.8864,1.8847,1.8835,1.8817,1.8807,1.8805,1.8802,1.8801,1.8799,1.8825,1.8829,1.8803,1.8803,1.8803,1.8803,1.8803,1.8803,1.9001,1.8994,1.8984,1.8973,1.8965,1.8955,1.8946,1.8939,1.8928,1.8912,1.891,1.8893,1.8879,1.8857,1.8849,1.8833,1.8836,1.8831,1.8829,1.8827,1.8824,1.8858,1.8831,1.8831,1.8831,1.8831,1.8831,0,1.9012,1.9009,1.9001,1.899,1.8981,1.8973,1.8964,1.8958,1.8952,1.8942,1.8928,1.8919,1.89,1.8884,1.8868,1.8861,1.8859,1.886,1.8855,1.8855,1.8855,1.8851,1.889,1.8861,1.8861,1.8861,1.8861,1.8861,1.9026,1.9019,1.9009,1.9003,1.8999,1.8989,1.8982,1.8978,1.8971,1.8958,1.8951,1.8937,1.8925,1.8902,1.8893,1.8879,1.8878,1.8866,1.8876,1.8874,1.8873,1.8873,1.887,1.8864,1.8863,1.8863,1.8863,0,1.9032,1.903,1.9018,1.9011,1.9008,1.9,1.8992,1.8984,1.8979,1.8967,1.8964,1.8956,1.8942,1.8936,1.892,1.8916,1.8895,1.8896,1.8898,1.8897,1.8883,1.8884,1.8848,1.8841,1.8876,1.8876,1.8875,0,1.9042,1.9034,1.903,1.9024,1.9013,1.9011,1.8999,1.8995,1.8988,1.8978,1.8978,1.8968,1.8964,1.8952,1.8948,1.8931,1.8929,1.8924,1.8923,1.8923,1.8924,1.8918,1.8918,1.8925,1.8925,1.8926,1.8926,0,1.9053,1.9043,1.9034,1.9031,1.9023,1.9018,1.9014,1.9007,1.9001,1.8993,1.8988,1.8978,1.8972,1.8963,1.8958,1.8964,1.8938,1.8946,1.8933,1.8933,1.8927,1.8927,1.8898,1.8926,1.8926,1.8926,1.8926,0,1.9061,1.9056,1.9044,1.9037,1.9034,1.9029,1.902,1.9014,1.9006,1.9004,1.8998,1.8998,1.8986,1.8993,1.8974,1.8983,1.8976,1.8972,1.8971,1.8969,1.8977,1.8957,1.8932,1.8928,1.8966,1.8966,1.8967,0,1.9071,1.9061,1.9061,1.905,1.9044,1.9045,1.9038,1.9033,1.9031,1.9023,1.902,1.9012,1.9017,1.9014,1.9006,1.9001,1.8989,1.9003,1.8987,1.8986,1.8986,1.8963,1.896,1.8939,1.8971,1.8971,1.897,0,1.908,1.9076,1.9074,1.9071,1.9067,1.9064,1.9056,1.905,1.9045,1.9042,1.9033,1.9024,1.9026,1.9022,1.9022,1.9014,1.8997,1.9018,1.9018,1.9011,1.8975,1.897,1.8967,1.8998,1.8998,1.8997,1.8974,0,1.9087,1.9084,1.9081,1.9078,1.9075,1.907,1.907,1.9066,1.9066,1.9065,1.9055,1.9052,1.9045,1.9043,1.9044,1.9028,1.903,1.9034,1.904,1.9026,1.9018,1.9015,1.9051,1.9052,1.9052,1.9052,0,0,1.9097,1.9094,1.9097,1.9092,1.909,1.9094,1.9088,1.9086,1.9083,1.908,1.9084,1.9072,1.907,1.9057,1.9053,1.9052,1.9048,1.9054,1.9034,1.9031,1.903,1.9021,1.9018,1.9052,1.9052,1.9052,1.9052,0,1.91,1.9103,1.9099,1.9098,1.9097,1.9097,1.9096,1.9096,1.9095,1.9088,1.909,1.9084,1.9077,1.9073,1.907,1.9056,1.9057,1.9054,1.9045,1.9035,1.9033,1.9031,1.9022,1.9019,1.9053,1.9053,1.9053,0,1.9107,1.9108,1.9108,1.9107,1.9107,1.9103,1.911,1.9107,1.9103,1.9108,1.9101,1.9099,1.9096,1.9087,1.9083,1.9086,1.9065,1.9074,1.9073,1.9072,1.9062,1.9059,1.9057,1.9088,1.9088,1.9088,0,0,1.911,1.9109,1.911,1.9108,1.9108,1.911,1.9109,1.911,1.9109,1.9109,1.9108,1.9105,1.91,1.9097,1.9093,1.9084,1.9081,1.9078,1.9076,1.9075,1.9073,1.9063,1.9061,1.9088,1.9088,1.9088,0,0,1.9111,1.9114,1.9116,1.9114,1.9113,1.9114,1.9112,1.9114,1.9112,1.9112,1.9114,1.9114,1.9105,1.9105,1.9111,1.9095,1.9101,1.91,1.9096,1.9094,1.9092,1.9092,1.9117,0,0,0,0,0,1.9116,1.9113,1.9115,1.9115,1.9116,1.9113,1.9113,1.9116,1.9119,1.9117,1.9116,1.9119,1.9108,1.9113,1.9112,1.9105,1.9094,1.9093,1.9092,1.9085,1.9082,1.9081,0,0,0,0,0,0,1.9116,1.9116,1.9115,1.9117,1.9117,1.9113,1.912,1.912,1.912,1.912,1.9119,1.9119,1.9121,1.9114,1.9113,1.9106,1.9117,1.9094,1.9093,1.9092,1.9084,1.9082,1.9081,0,0,0,0,0,1.9116,1.9116,1.9117,1.9117,1.9117,1.9119,1.912,1.9121,1.912,1.912,1.9121,1.9122,1.9121,1.912,1.9113,1.9107,1.9118,1.9118,1.9093,1.9093,1.9092,1.9083,0,0,0,0,0,0,1.9116,1.9116,1.9117,1.9117,1.9119,1.9119,1.912,1.9121,1.912,1.912,1.9123,1.9124,1.912,1.912,1.9119,1.9106,1.9119,1.9118,1.9118,1.9093,1.9092,1.9092,0,0,0,0,0,0,1.9116,1.9116,1.9117,1.912,1.9121,1.912,1.912,1.9115,1.912,1.9123,1.9123,1.9123,1.9121,1.912,1.9119,1.9112,1.9119,1.9119,1.9119,1.9118,1.9092,1.9092,0,0,0,0,0,0,1.9116,1.9116,1.912,1.912,1.9121,1.9121,1.9115,1.9116,1.9124,1.9123,1.9125,1.9125,1.912,1.912,1.912,1.9112,1.9112,1.9119,1.9119,1.9119,1.9119,0,0,0,0,0,0,0,1.9116,1.9115,1.9117,1.9121,1.9121,1.9118,1.9118,1.9118,1.9124,1.9124,1.9124,1.9125,1.9121,1.9121,1.912,1.9113,0,0,1.9119,1.9119,0,0,0,0,0,0,0,0,1.9115,1.9115,1.9117,1.9117,1.9117,1.9118,1.9118,1.9118,1.9124,1.9124,1.9124,1.9125,1.9121,1.9121,1.912,0,0,0,0,0,0,0,0,0,0,0,0,0,0,0,1.9117,1.9117,0,1.9118,1.9118,1.9118,1.9124,1.9124,1.9124,1.9125,1.9121,1.9121,1.912,0,0,0,0,0,0,0,0,0,0,0,0,0,0,0,0,0,0,0,0,0,0,0,0,0,0,0,0,0,0,0,0,0,0,0,0,0,0,0,0,0,0,0,0,0,0,0,0,0,0,0,0,0,0,0,0,0,0,0,0,0,0,0,0,0,0,0,0,0]}]]]